Year,Month,Day,Hour,Minute,Value (Times are PST for temperature in C)
2020,07,28,07,16,15.40
2020,07,28,07,17,15.40
2020,07,28,07,18,15.40
2020,07,28,07,19,15.40
2020,07,28,07,20,15.40
2020,07,28,07,21,15.40
2020,07,28,07,22,15.40
2020,07,28,07,23,15.40
2020,07,28,07,24,15.40
2020,07,28,07,25,15.40
2020,07,28,07,26,15.50
2020,07,28,07,27,15.50
2020,07,28,07,28,15.50
2020,07,28,07,29,15.50
2020,07,28,07,30,15.60
2020,07,28,07,31,15.60
2020,07,28,07,32,15.60
2020,07,28,07,33,15.60
2020,07,28,07,34,15.60
2020,07,28,07,35,15.60
2020,07,28,07,36,15.60
2020,07,28,07,37,15.60
2020,07,28,07,38,15.60
2020,07,28,07,39,15.60
2020,07,28,07,40,15.60
2020,07,28,07,41,15.60
2020,07,28,07,42,15.60
2020,07,28,07,43,15.60
2020,07,28,07,44,15.60
2020,07,28,07,45,15.60
2020,07,28,07,46,15.60
2020,07,28,07,47,15.60
2020,07,28,07,48,15.60
2020,07,28,07,49,15.60
2020,07,28,07,50,15.60
2020,07,28,07,51,15.70
2020,07,28,07,52,15.70
2020,07,28,07,53,15.70
2020,07,28,07,54,15.70
2020,07,28,07,55,15.70
2020,07,28,07,56,15.80
2020,07,28,07,57,15.80
2020,07,28,07,58,15.90
2020,07,28,07,59,15.90
2020,07,28,08,00,16.00
2020,07,28,08,01,16.10
2020,07,28,08,02,16.10
2020,07,28,08,03,16.10
2020,07,28,08,04,16.20
2020,07,28,08,05,16.20
2020,07,28,08,06,16.30
2020,07,28,08,07,16.30
2020,07,28,08,08,16.30
2020,07,28,08,09,16.40
2020,07,28,08,10,16.40
2020,07,28,08,11,16.40
2020,07,28,08,12,16.50
2020,07,28,08,13,16.50
2020,07,28,08,14,16.60
2020,07,28,08,15,16.60
2020,07,28,08,16,16.60
2020,07,28,08,17,16.60
2020,07,28,08,18,16.60
2020,07,28,08,19,16.60
2020,07,28,08,20,16.60
2020,07,28,08,21,16.60
2020,07,28,08,22,16.60
2020,07,28,08,23,16.60
2020,07,28,08,24,16.70
2020,07,28,08,25,16.70
2020,07,28,08,26,16.70
2020,07,28,08,27,16.70
2020,07,28,08,28,16.70
2020,07,28,08,29,16.70
2020,07,28,08,30,16.70
2020,07,28,08,31,16.70
2020,07,28,08,32,16.70
2020,07,28,08,33,16.70
2020,07,28,08,34,16.70
2020,07,28,08,35,16.70
2020,07,28,08,36,16.60
2020,07,28,08,37,16.60
2020,07,28,08,38,16.50
2020,07,28,08,39,16.50
2020,07,28,08,40,16.50
2020,07,28,08,41,16.40
2020,07,28,08,42,16.40
2020,07,28,08,43,16.40
2020,07,28,08,44,16.40
2020,07,28,08,45,16.30
2020,07,28,08,46,16.30
2020,07,28,08,47,16.30
2020,07,28,08,48,16.30
2020,07,28,08,49,16.30
2020,07,28,08,50,16.30
2020,07,28,08,51,16.30
2020,07,28,08,52,16.30
2020,07,28,08,53,16.30
2020,07,28,08,54,16.30
2020,07,28,08,55,16.30
2020,07,28,08,56,16.30
2020,07,28,08,57,16.30
2020,07,28,08,58,16.30
2020,07,28,08,59,16.30
2020,07,28,09,00,16.30
2020,07,28,09,01,16.30
2020,07,28,09,02,16.30
2020,07,28,09,03,16.30
2020,07,28,09,04,16.30
2020,07,28,09,05,16.30
2020,07,28,09,06,16.40
2020,07,28,09,07,16.40
2020,07,28,09,08,16.40
2020,07,28,09,09,16.40
2020,07,28,09,10,16.40
2020,07,28,09,11,16.40
2020,07,28,09,12,16.40
2020,07,28,09,13,16.40
2020,07,28,09,14,16.40
2020,07,28,09,15,16.40
2020,07,28,09,16,16.40
2020,07,28,09,17,16.40
2020,07,28,09,18,16.50
2020,07,28,09,19,16.50
2020,07,28,09,20,16.50
2020,07,28,09,21,16.50
2020,07,28,09,22,16.60
2020,07,28,09,23,16.60
2020,07,28,09,24,16.60
2020,07,28,09,25,16.60
2020,07,28,09,26,16.60
2020,07,28,09,27,16.60
2020,07,28,09,28,16.70
2020,07,28,09,29,16.70
2020,07,28,09,30,16.80
2020,07,28,09,31,16.80
2020,07,28,09,32,16.90
2020,07,28,09,33,17.00
2020,07,28,09,34,17.10
2020,07,28,09,35,17.20
2020,07,28,09,36,17.20
2020,07,28,09,37,17.30
2020,07,28,09,38,17.30
2020,07,28,09,39,17.40
2020,07,28,09,40,17.50
2020,07,28,09,41,17.60
2020,07,28,09,42,17.60
2020,07,28,09,43,17.70
2020,07,28,09,44,17.70
2020,07,28,09,45,17.70
2020,07,28,09,46,17.70
2020,07,28,09,47,17.70
2020,07,28,09,48,17.80
2020,07,28,09,49,17.80
2020,07,28,09,50,17.80
2020,07,28,09,51,17.80
2020,07,28,09,52,17.80
2020,07,28,09,53,17.90
2020,07,28,09,54,17.90
2020,07,28,09,55,17.90
2020,07,28,09,56,17.90
2020,07,28,09,57,18.00
2020,07,28,09,58,18.00
2020,07,28,09,59,18.10
2020,07,28,10,00,18.20
2020,07,28,10,01,18.30
2020,07,28,10,02,18.30
2020,07,28,10,03,18.40
2020,07,28,10,04,18.40
2020,07,28,10,05,18.50
2020,07,28,10,06,18.60
2020,07,28,10,07,18.70
2020,07,28,10,08,18.70
2020,07,28,10,09,18.70
2020,07,28,10,10,18.70
2020,07,28,10,11,18.70
2020,07,28,10,12,18.60
2020,07,28,10,13,18.50
2020,07,28,10,14,18.50
2020,07,28,10,15,18.50
2020,07,28,10,16,18.40
2020,07,28,10,17,18.40
2020,07,28,10,18,18.40
2020,07,28,10,19,18.40
2020,07,28,10,20,18.40
2020,07,28,10,21,18.40
2020,07,28,10,22,18.40
2020,07,28,10,23,18.40
2020,07,28,10,24,18.30
2020,07,28,10,25,18.30
2020,07,28,10,26,18.20
2020,07,28,10,27,18.20
2020,07,28,10,28,18.20
2020,07,28,10,29,18.10
2020,07,28,10,30,18.10
2020,07,28,10,31,18.10
2020,07,28,10,32,18.10
2020,07,28,10,33,18.10
2020,07,28,10,34,18.20
2020,07,28,10,35,18.20
2020,07,28,10,36,18.20
2020,07,28,10,37,18.20
2020,07,28,10,38,18.30
2020,07,28,10,39,18.30
2020,07,28,10,40,18.30
2020,07,28,10,41,18.40
2020,07,28,10,42,18.40
2020,07,28,10,43,18.40
2020,07,28,10,44,18.50
2020,07,28,10,45,18.50
2020,07,28,10,46,18.60
2020,07,28,10,47,18.60
2020,07,28,10,48,18.60
2020,07,28,10,49,18.70
2020,07,28,10,50,18.70
2020,07,28,10,51,18.70
2020,07,28,10,52,18.70
2020,07,28,10,53,18.70
2020,07,28,10,54,18.80
2020,07,28,10,55,18.80
2020,07,28,10,56,18.90
2020,07,28,10,57,18.90
2020,07,28,10,58,19.00
2020,07,28,10,59,19.00
2020,07,28,11,00,19.00
2020,07,28,11,01,19.10
2020,07,28,11,02,19.10
2020,07,28,11,03,19.10
2020,07,28,11,04,19.10
2020,07,28,11,05,19.10
2020,07,28,11,06,19.10
2020,07,28,11,07,19.10
2020,07,28,11,08,19.20
2020,07,28,11,09,19.20
2020,07,28,11,10,19.30
2020,07,28,11,11,19.40
2020,07,28,11,12,19.50
2020,07,28,11,13,19.50
2020,07,28,11,14,19.60
2020,07,28,11,15,19.70
2020,07,28,11,16,19.70
2020,07,28,11,17,19.70
2020,07,28,11,18,19.80
2020,07,28,11,19,19.90
2020,07,28,11,20,19.90
2020,07,28,11,21,20.00
2020,07,28,11,22,20.00
2020,07,28,11,23,20.10
2020,07,28,11,24,20.10
2020,07,28,11,25,20.10
2020,07,28,11,26,20.20
2020,07,28,11,27,20.20
2020,07,28,11,28,20.20
2020,07,28,11,29,20.30
2020,07,28,11,30,20.30
2020,07,28,11,31,20.30
2020,07,28,11,32,20.40
2020,07,28,11,33,20.40
2020,07,28,11,34,20.40
2020,07,28,11,35,20.40
2020,07,28,11,36,20.50
2020,07,28,11,37,20.60
2020,07,28,11,38,20.60
2020,07,28,11,39,20.70
2020,07,28,11,40,20.70
2020,07,28,11,41,20.70
2020,07,28,11,42,20.70
2020,07,28,11,43,20.70
2020,07,28,11,44,20.70
2020,07,28,11,45,20.70
2020,07,28,11,46,20.70
2020,07,28,11,47,20.70
2020,07,28,11,48,20.70
2020,07,28,11,49,20.70
2020,07,28,11,50,20.70
2020,07,28,11,51,20.70
2020,07,28,11,52,20.70
2020,07,28,11,53,20.70
2020,07,28,11,54,20.80
2020,07,28,11,55,20.80
2020,07,28,11,56,20.80
2020,07,28,11,57,20.90
2020,07,28,11,58,20.90
2020,07,28,11,59,20.90
2020,07,28,12,00,21.00
2020,07,28,12,01,21.10
2020,07,28,12,02,21.10
2020,07,28,12,03,21.10
2020,07,28,12,04,21.10
2020,07,28,12,05,21.10
2020,07,28,12,06,21.10
2020,07,28,12,07,21.20
2020,07,28,12,08,21.20
2020,07,28,12,09,21.20
2020,07,28,12,10,21.20
2020,07,28,12,11,21.20
2020,07,28,12,12,21.20
2020,07,28,12,13,21.10
2020,07,28,12,14,21.10
2020,07,28,12,15,21.00
2020,07,28,12,16,21.00
2020,07,28,12,17,20.90
2020,07,28,12,18,20.80
2020,07,28,12,19,20.80
2020,07,28,12,20,20.80
2020,07,28,12,21,20.80
2020,07,28,12,22,20.80
2020,07,28,12,23,20.80
2020,07,28,12,24,20.80
2020,07,28,12,25,20.90
2020,07,28,12,26,20.90
2020,07,28,12,27,20.90
2020,07,28,12,28,21.00
2020,07,28,12,29,21.10
2020,07,28,12,30,21.20
2020,07,28,12,31,21.30
2020,07,28,12,32,21.40
2020,07,28,12,33,21.50
2020,07,28,12,34,21.60
2020,07,28,12,35,21.70
2020,07,28,12,36,21.80
2020,07,28,12,37,22.00
2020,07,28,12,38,22.20
2020,07,28,12,39,22.30
2020,07,28,12,40,22.40
2020,07,28,12,41,22.50
2020,07,28,12,42,22.50
2020,07,28,12,43,22.60
2020,07,28,12,44,22.60
2020,07,28,12,45,22.60
2020,07,28,12,46,22.50
2020,07,28,12,47,22.40
2020,07,28,12,48,22.50
2020,07,28,12,49,22.50
2020,07,28,12,50,22.40
2020,07,28,12,51,22.30
2020,07,28,12,52,22.30
2020,07,28,12,53,22.30
2020,07,28,12,54,22.40
2020,07,28,12,55,22.40
2020,07,28,12,56,22.50
2020,07,28,12,57,22.60
2020,07,28,12,58,22.60
2020,07,28,12,59,22.60
2020,07,28,13,00,22.60
2020,07,28,13,01,22.70
2020,07,28,13,02,22.70
2020,07,28,13,03,22.80
2020,07,28,13,04,22.90
2020,07,28,13,05,23.00
2020,07,28,13,06,23.20
2020,07,28,13,07,23.30
2020,07,28,13,08,23.40
2020,07,28,13,09,23.50
2020,07,28,13,10,23.60
2020,07,28,13,11,23.70
2020,07,28,13,12,23.60
2020,07,28,13,13,23.60
2020,07,28,13,14,23.40
2020,07,28,13,15,23.30
2020,07,28,13,16,23.30
2020,07,28,13,17,23.20
2020,07,28,13,18,23.20
2020,07,28,13,19,23.10
2020,07,28,13,20,23.00
2020,07,28,13,21,23.00
2020,07,28,13,22,22.90
2020,07,28,13,23,22.90
2020,07,28,13,24,22.90
2020,07,28,13,25,22.80
2020,07,28,13,26,22.70
2020,07,28,13,27,22.70
2020,07,28,13,28,22.70
2020,07,28,13,29,22.80
2020,07,28,13,30,22.80
2020,07,28,13,31,22.80
2020,07,28,13,32,22.80
2020,07,28,13,33,22.80
2020,07,28,13,34,22.80
2020,07,28,13,35,22.80
2020,07,28,13,36,22.80
2020,07,28,13,37,22.80
2020,07,28,13,38,22.80
2020,07,28,13,39,22.70
2020,07,28,13,40,22.70
2020,07,28,13,41,22.70
2020,07,28,13,42,22.70
2020,07,28,13,43,22.60
2020,07,28,13,44,22.50
2020,07,28,13,45,22.50
2020,07,28,13,46,22.40
2020,07,28,13,47,22.40
2020,07,28,13,48,22.40
2020,07,28,13,49,22.40
2020,07,28,13,50,22.40
2020,07,28,13,51,22.40
2020,07,28,13,52,22.40
2020,07,28,13,53,22.40
2020,07,28,13,54,22.40
2020,07,28,13,55,22.40
2020,07,28,13,56,22.40
2020,07,28,13,57,22.40
2020,07,28,13,58,22.40
2020,07,28,13,59,22.40
2020,07,28,14,00,22.40
2020,07,28,14,01,22.40
2020,07,28,14,02,22.40
2020,07,28,14,03,22.40
2020,07,28,14,04,22.40
2020,07,28,14,05,22.30
2020,07,28,14,06,22.30
2020,07,28,14,07,22.30
2020,07,28,14,08,22.20
2020,07,28,14,09,22.20
2020,07,28,14,10,22.20
2020,07,28,14,11,22.20
2020,07,28,14,12,22.20
2020,07,28,14,13,22.20
2020,07,28,14,14,22.20
2020,07,28,14,15,22.20
2020,07,28,14,16,22.30
2020,07,28,14,17,22.40
2020,07,28,14,18,22.50
2020,07,28,14,19,22.50
2020,07,28,14,20,22.50
2020,07,28,14,21,22.50
2020,07,28,14,22,22.50
2020,07,28,14,23,22.40
2020,07,28,14,24,22.40
2020,07,28,14,25,22.50
2020,07,28,14,26,22.50
2020,07,28,14,27,22.50
2020,07,28,14,28,22.50
2020,07,28,14,29,22.50
2020,07,28,14,30,22.50
2020,07,28,14,31,22.40
2020,07,28,14,32,22.40
2020,07,28,14,33,22.30
2020,07,28,14,34,22.30
2020,07,28,14,35,22.30
2020,07,28,14,36,22.30
2020,07,28,14,37,22.30
2020,07,28,14,38,22.30
2020,07,28,14,39,22.40
2020,07,28,14,40,22.40
2020,07,28,14,41,22.50
2020,07,28,14,42,22.50
2020,07,28,14,43,22.60
2020,07,28,14,44,22.60
2020,07,28,14,45,22.60
2020,07,28,14,46,22.60
2020,07,28,14,47,22.60
2020,07,28,14,48,22.60
2020,07,28,14,49,22.60
2020,07,28,14,50,22.60
2020,07,28,14,51,22.60
2020,07,28,14,52,22.60
2020,07,28,14,53,22.70
2020,07,28,14,54,22.70
2020,07,28,14,55,22.70
2020,07,28,14,56,22.70
2020,07,28,14,57,22.70
2020,07,28,14,58,22.70
2020,07,28,14,59,22.70
2020,07,28,15,00,22.70
2020,07,28,15,01,22.70
2020,07,28,15,02,22.70
2020,07,28,15,03,22.70
2020,07,28,15,04,22.70
2020,07,28,15,05,22.60
2020,07,28,15,06,22.60
2020,07,28,15,07,22.60
2020,07,28,15,08,22.60
2020,07,28,15,09,22.60
2020,07,28,15,10,22.60
2020,07,28,15,11,22.60
2020,07,28,15,12,22.60
2020,07,28,15,13,22.50
2020,07,28,15,14,22.50
2020,07,28,15,15,22.50
2020,07,28,15,16,22.40
2020,07,28,15,17,22.40
2020,07,28,15,18,22.40
2020,07,28,15,19,22.40
2020,07,28,15,20,22.50
2020,07,28,15,21,22.60
2020,07,28,15,22,22.60
2020,07,28,15,23,22.60
2020,07,28,15,24,22.70
2020,07,28,15,25,22.70
2020,07,28,15,26,22.70
2020,07,28,15,27,22.70
2020,07,28,15,28,22.70
2020,07,28,15,29,22.70
2020,07,28,15,30,22.70
2020,07,28,15,31,22.80
2020,07,28,15,32,22.90
2020,07,28,15,33,23.10
2020,07,28,15,34,23.20
2020,07,28,15,35,23.30
2020,07,28,15,36,23.40
2020,07,28,15,37,23.40
2020,07,28,15,38,23.40
2020,07,28,15,39,23.50
2020,07,28,15,40,23.50
2020,07,28,15,41,23.50
2020,07,28,15,42,23.60
2020,07,28,15,43,23.60
2020,07,28,15,44,23.60
2020,07,28,15,45,23.60
2020,07,28,15,46,23.70
2020,07,28,15,47,23.80
2020,07,28,15,48,23.80
2020,07,28,15,49,23.80
2020,07,28,15,50,23.80
2020,07,28,15,51,23.90
2020,07,28,15,52,23.90
2020,07,28,15,53,23.90
2020,07,28,15,54,23.90
2020,07,28,15,55,23.80
2020,07,28,15,56,23.80
2020,07,28,15,57,23.80
2020,07,28,15,58,23.80
2020,07,28,15,59,23.80
2020,07,28,16,00,23.80
2020,07,28,16,01,23.80
2020,07,28,16,02,23.80
2020,07,28,16,03,23.80
2020,07,28,16,04,23.80
2020,07,28,16,05,23.80
2020,07,28,16,06,23.80
2020,07,28,16,07,23.70
2020,07,28,16,08,23.70
2020,07,28,16,09,23.60
2020,07,28,16,10,23.70
2020,07,28,16,11,23.70
2020,07,28,16,12,23.70
2020,07,28,16,13,23.80
2020,07,28,16,14,23.90
2020,07,28,16,15,23.90
2020,07,28,16,16,23.90
2020,07,28,16,17,23.90
2020,07,28,16,18,23.80
2020,07,28,16,19,23.70
2020,07,28,16,20,23.60
2020,07,28,16,21,23.50
2020,07,28,16,22,23.40
2020,07,28,16,23,23.40
2020,07,28,16,24,23.40
2020,07,28,16,25,23.50
2020,07,28,16,26,23.50
2020,07,28,16,27,23.60
2020,07,28,16,28,23.60
2020,07,28,16,29,23.70
2020,07,28,16,30,23.70
2020,07,28,16,31,23.70
2020,07,28,16,32,23.70
2020,07,28,16,33,23.70
2020,07,28,16,34,23.70
2020,07,28,16,35,23.70
2020,07,28,16,36,23.70
2020,07,28,16,37,23.70
2020,07,28,16,38,23.60
2020,07,28,16,39,23.50
2020,07,28,16,40,23.40
2020,07,28,16,41,23.40
2020,07,28,16,42,23.40
2020,07,28,16,43,23.40
2020,07,28,16,44,23.40
2020,07,28,16,45,23.40
2020,07,28,16,46,23.40
2020,07,28,16,47,23.40
2020,07,28,16,48,23.40
2020,07,28,16,49,23.40
2020,07,28,16,50,23.40
2020,07,28,16,51,23.40
2020,07,28,16,52,23.50
2020,07,28,16,53,23.50
2020,07,28,16,54,23.60
2020,07,28,16,55,23.60
2020,07,28,16,56,23.60
2020,07,28,16,57,23.70
2020,07,28,16,58,23.80
2020,07,28,16,59,23.90
2020,07,28,17,00,24.00
2020,07,28,17,01,24.00
2020,07,28,17,02,24.10
2020,07,28,17,03,24.20
2020,07,28,17,04,24.40
2020,07,28,17,05,24.50
2020,07,28,17,06,24.70
2020,07,28,17,07,24.80
2020,07,28,17,08,24.90
2020,07,28,17,09,25.00
2020,07,28,17,10,25.00
2020,07,28,17,11,25.10
2020,07,28,17,12,25.10
2020,07,28,17,13,25.10
2020,07,28,17,14,25.10
2020,07,28,17,15,25.10
2020,07,28,17,16,25.20
2020,07,28,17,17,25.20
2020,07,28,17,18,25.20
2020,07,28,17,19,25.20
2020,07,28,17,20,25.10
2020,07,28,17,21,25.00
2020,07,28,17,22,25.00
2020,07,28,17,23,25.00
2020,07,28,17,24,25.10
2020,07,28,17,25,25.00
2020,07,28,17,26,25.00
2020,07,28,17,27,25.00
2020,07,28,17,28,24.90
2020,07,28,17,29,24.80
2020,07,28,17,30,24.70
2020,07,28,17,31,24.60
2020,07,28,17,32,24.40
2020,07,28,17,33,24.30
2020,07,28,17,34,24.30
2020,07,28,17,35,24.20
2020,07,28,17,36,24.20
2020,07,28,17,37,24.10
2020,07,28,17,38,24.10
2020,07,28,17,39,24.00
2020,07,28,17,40,24.00
2020,07,28,17,41,24.00
2020,07,28,17,42,24.00
2020,07,28,17,43,23.90
2020,07,28,17,44,23.90
2020,07,28,17,45,23.80
2020,07,28,17,46,23.80
2020,07,28,17,47,23.90
2020,07,28,17,48,23.90
2020,07,28,17,49,23.90
2020,07,28,17,50,23.90
2020,07,28,17,51,24.00
2020,07,28,17,52,24.00
2020,07,28,17,53,24.10
2020,07,28,17,54,24.10
2020,07,28,17,55,24.10
2020,07,28,17,56,24.10
2020,07,28,17,57,24.00
2020,07,28,17,58,24.00
2020,07,28,17,59,24.00
2020,07,28,18,00,24.00
2020,07,28,18,01,24.00
2020,07,28,18,02,24.00
2020,07,28,18,03,24.10
2020,07,28,18,04,24.20
2020,07,28,18,05,24.30
2020,07,28,18,06,24.40
2020,07,28,18,07,24.60
2020,07,28,18,08,24.70
2020,07,28,18,09,24.80
2020,07,28,18,10,24.80
2020,07,28,18,11,24.80
2020,07,28,18,12,24.80
2020,07,28,18,13,24.80
2020,07,28,18,14,24.80
2020,07,28,18,15,24.80
2020,07,28,18,16,24.70
2020,07,28,18,17,24.60
2020,07,28,18,18,24.60
2020,07,28,18,19,24.60
2020,07,28,18,20,24.50
2020,07,28,18,21,24.40
2020,07,28,18,22,24.20
2020,07,28,18,23,24.10
2020,07,28,18,24,24.00
2020,07,28,18,25,23.90
2020,07,28,18,26,23.90
2020,07,28,18,27,23.90
2020,07,28,18,28,23.90
2020,07,28,18,29,23.90
2020,07,28,18,30,23.90
2020,07,28,18,31,24.00
2020,07,28,18,32,24.00
2020,07,28,18,33,24.00
2020,07,28,18,34,23.90
2020,07,28,18,35,23.90
2020,07,28,18,36,23.80
2020,07,28,18,37,23.70
2020,07,28,18,38,23.60
2020,07,28,18,39,23.50
2020,07,28,18,40,23.50
2020,07,28,18,41,23.40
2020,07,28,18,42,23.30
2020,07,28,18,43,23.30
2020,07,28,18,44,23.20
2020,07,28,18,45,23.10
2020,07,28,18,46,23.00
2020,07,28,18,47,22.90
2020,07,28,18,48,22.90
2020,07,28,18,49,23.00
2020,07,28,18,50,23.20
2020,07,28,18,51,23.40
2020,07,28,18,52,23.60
2020,07,28,18,53,23.80
2020,07,28,18,54,24.00
2020,07,28,18,55,24.00
2020,07,28,18,56,24.00
2020,07,28,18,57,24.00
2020,07,28,18,58,24.00
2020,07,28,18,59,24.00
2020,07,28,19,00,24.00
2020,07,28,19,01,23.90
2020,07,28,19,02,23.80
2020,07,28,19,03,23.80
2020,07,28,19,04,23.70
2020,07,28,19,05,23.70
2020,07,28,19,06,23.70
2020,07,28,19,07,23.80
2020,07,28,19,08,23.90
2020,07,28,19,09,24.00
2020,07,28,19,10,24.20
2020,07,28,19,11,24.30
2020,07,28,19,12,24.40
2020,07,28,19,13,24.60
2020,07,28,19,14,24.70
2020,07,28,19,15,24.70
2020,07,28,19,16,24.70
2020,07,28,19,17,24.70
2020,07,28,19,18,24.60
2020,07,28,19,19,24.60
2020,07,28,19,20,24.50
2020,07,28,19,21,24.40
2020,07,28,19,22,24.40
2020,07,28,19,23,24.30
2020,07,28,19,24,24.20
2020,07,28,19,25,24.10
2020,07,28,19,26,24.10
2020,07,28,19,27,24.00
2020,07,28,19,28,24.00
2020,07,28,19,29,23.90
2020,07,28,19,30,23.80
2020,07,28,19,31,23.70
2020,07,28,19,32,23.60
2020,07,28,19,33,23.50
2020,07,28,19,34,23.50
2020,07,28,19,35,23.40
2020,07,28,19,36,23.30
2020,07,28,19,37,23.20
2020,07,28,19,38,23.20
2020,07,28,19,39,23.10
2020,07,28,19,40,23.10
2020,07,28,19,41,23.00
2020,07,28,19,42,22.90
2020,07,28,19,43,22.90
2020,07,28,19,44,22.80
2020,07,28,19,45,22.70
2020,07,28,19,46,22.70
2020,07,28,19,47,22.70
2020,07,28,19,48,22.60
2020,07,28,19,49,22.50
2020,07,28,19,50,22.50
2020,07,28,19,51,22.40
2020,07,28,19,52,22.30
2020,07,28,19,53,22.20
2020,07,28,19,54,22.20
2020,07,28,19,55,22.10
2020,07,28,19,56,22.00
2020,07,28,19,57,21.90
2020,07,28,19,58,21.80
2020,07,28,19,59,21.70
2020,07,28,20,00,21.60
2020,07,28,20,01,21.50
2020,07,28,20,02,21.40
2020,07,28,20,03,21.40
2020,07,28,20,04,21.30
2020,07,28,20,05,21.20
2020,07,28,20,06,21.10
2020,07,28,20,07,21.10
2020,07,28,20,08,21.00
2020,07,28,20,09,20.90
2020,07,28,20,10,20.90
2020,07,28,20,11,20.80
2020,07,28,20,12,20.70
2020,07,28,20,13,20.70
2020,07,28,20,14,20.60
2020,07,28,20,15,20.60
2020,07,28,20,16,20.60
2020,07,28,20,17,20.50
2020,07,28,20,18,20.50
2020,07,28,20,19,20.40
2020,07,28,20,20,20.40
2020,07,28,20,21,20.30
2020,07,28,20,22,20.30
2020,07,28,20,23,20.30
2020,07,28,20,24,20.30
2020,07,28,20,25,20.30
2020,07,28,20,26,20.30
2020,07,28,20,27,20.30
2020,07,28,20,28,20.30
2020,07,28,20,29,20.30
2020,07,28,20,30,20.30
2020,07,28,20,31,20.30
